User: anonymous
Location: Salamanca
(40.9670°N, 5.6500°W)
Time: 07:49:01
(UTC+02:00)
Language:

Cosmos 1633 Rocket - Orbit

View from above orbital plane
View from above orbital plane
View from above satellite
View from above satellite

Ground track
Ground track

The orbit data is extracted from the following two-line orbital elements,

1 15593U 85020B   14261.16169432  .00000363  00000-0  40982-4 0  7542
2 15593 082.5363 121.0226 0013369 111.3110 008.6679 14.83746187595606
Epoch (UTC): 18 September 2014 03:52:50
Eccentricity: 0.0013369
inclination: 82.5363°
perigee height: 608 km
apogee height: 627 km
right ascension of ascending node: 121.0226°
argument of perigee: 111.3110°
revolutions per day: 14.83746187
mean anomaly at epoch: 8.6679°
orbit number at epoch: 59560

The dashed part of the orbit path shows where the satellite is in the earth's shadow,  

DLR